Вернуться в каталог

ATLAS 5 CENTAUR DEB

LostHEO
NORAD 52973·DEBRIS·🇺🇸 United States

Запущен Oct 17, 2018 с Cape Canaveral Space Force Station

Loading…

Ближайшие Пролёты (ближайшие 24 часа)

TLE

УстаревшееSource: Space-Track

Эпоха: Jun 15, 2026, 21:10 UTC

1 52973U 18079GX  26166.88208377 -.00000119  00000-0  00000-0 0  9997
2 52973  12.8193  69.1660 4510735 243.5335  63.6593  1.71398677 30408

Отслеживайте ATLAS 5 CENTAUR DEB в реальном времени с AllMySat

Download on the App Store